カタログに戻る

COSMOS 970 DEB

運用中LEO
NORAD 13505·DEBRIS·🇷🇺 Russia

打ち上げ Dec 21, 1977 から Baikonur Cosmodrome

Loading…

次のパス (今後24時間)

TLE

最新Source: Space-Track

元期: Sep 14, 2026, 23:11 UTC

1 13505U 77121BC  26257.96610741  .00000865  00000-0  12360-2 0  9991
2 13505  65.3540 239.9751 0010370  48.3039 342.7650 13.61502420704319

AllMySatでCOSMOS 970 DEBをリアルタイム追跡

Download on the App Store